| time (UTC) | temp F | wind direction | speed MPH | gust MPH | rain 1hr in | rain 24hr in | rain mn in | humidity % | barometer mb |
| 20260506032939 | 70 | 76 | 0.0 | 3.0 | 0.00 | 0.13 | 0.13 | 76 | 1007.9 |
| 20260506032437 | 71 | 76 | 0.0 | 3.0 | 0.00 | 0.13 | 0.13 | 76 | 1007.7 |
| 20260506031933 | 71 | 81 | 2.0 | 4.0 | 0.00 | 0.13 | 0.13 | 75 | 1007.6 |
| 20260506031431 | 71 | 109 | 2.0 | 6.0 | 0.00 | 0.13 | 0.13 | 76 | 1007.9 |
| 20260506030929 | 72 | 256 | 3.0 | 6.0 | 0.00 | 0.13 | 0.13 | 76 | 1007.5 |
| 20260506030426 | 72 | 79 | 0.0 | 4.0 | 0.00 | 0.13 | 0.13 | 76 | 1007.4 |
| 20260506025923 | 73 | 141 | 1.0 | 3.0 | 0.00 | 0.13 | 0.13 | 76 | 1007.0 |
| 20260506025420 | 73 | 167 | 0.0 | 5.0 | 0.00 | 0.13 | 0.13 | 76 | 1007.0 |
| 20260506024916 | 73 | 41 | 0.0 | 3.0 | 0.00 | 0.13 | 0.13 | 75 | 1006.9 |
| 20260506024414 | 73 | 229 | 2.0 | 3.0 | 0.00 | 0.13 | 0.13 | 76 | 1006.7 |
| 20260506023909 | 73 | 326 | 0.0 | 2.0 | 0.00 | 0.13 | 0.13 | 77 | 1006.3 |
| 20260506023407 | 73 | 183 | 1.0 | 2.0 | 0.00 | 0.13 | 0.13 | 77 | 1006.3 |
| 20260506022903 | 73 | 102 | 0.0 | 2.0 | 0.00 | 0.13 | 0.13 | 77 | 1006.0 |
| 20260506022401 | 73 | 54 | 2.0 | 2.0 | 0.00 | 0.13 | 0.13 | 76 | 1005.8 |
| 20260506021859 | 73 | 202 | 0.0 | 3.0 | 0.00 | 0.13 | 0.13 | 76 | 1005.8 |
| 20260506021355 | 73 | 173 | 0.0 | 2.0 | 0.00 | 0.13 | 0.13 | 77 | 1006.0 |
| 20260506020852 | 73 | 276 | 2.0 | 2.0 | 0.00 | 0.13 | 0.13 | 77 | 1006.0 |
| 20260506020350 | 73 | 339 | 2.0 | 2.0 | 0.00 | 0.13 | 0.13 | 78 | 1005.6 |
| 20260506015847 | 73 | 80 | 1.0 | 3.0 | 0.00 | 0.13 | 0.13 | 79 | 1005.8 |
| 20260506015345 | 73 | 124 | 0.0 | 2.0 | 0.00 | 0.13 | 0.13 | 79 | 1005.9 |
| 20260506014841 | 73 | 135 | 0.0 | 2.0 | 0.00 | 0.13 | 0.13 | 80 | 1005.5 |
| 20260506014338 | 74 | 209 | 0.0 | 1.0 | 0.00 | 0.13 | 0.13 | 81 | 1005.5 |
| 20260506013835 | 74 | 285 | 0.0 | 2.0 | 0.00 | 0.13 | 0.13 | 81 | 1005.3 |
| 20260506013332 | 74 | 252 | 0.0 | 2.0 | 0.00 | 0.13 | 0.13 | 81 | 1005.6 |
| 20260506012829 | 74 | 124 | 1.0 | 2.0 | 0.00 | 0.13 | 0.13 | 83 | 1005.7 |
| 20260506012326 | 75 | 44 | 2.0 | 2.0 | 0.00 | 0.13 | 0.13 | 85 | 1005.6 |
| 20260506011823 | 77 | 43 | 0.0 | 2.0 | 0.00 | 0.13 | 0.13 | 90 | 1005.2 |
| 20260506011319 | 77 | 55 | 0.0 | 2.0 | 0.00 | 0.13 | 0.13 | 91 | 1005.0 |
| 20260506010817 | 77 | 266 | 1.0 | 2.0 | 0.00 | 0.13 | 0.13 | 91 | 1005.0 |
| 20260506010315 | 77 | 37 | 0.0 | 0.0 | 0.00 | 0.13 | 0.13 | 91 | 1004.6 |
| 20260506005812 | 77 | 296 | 2.0 | 2.0 | 0.00 | 0.13 | 0.13 | 91 | 1004.8 |
| 20260506005308 | 77 | 114 | 0.0 | 1.0 | 0.00 | 0.13 | 0.13 | 90 | 1004.9 |
| 20260506004805 | 77 | 255 | 1.0 | 3.0 | 0.00 | 0.13 | 0.13 | 90 | 1004.7 |
| 20260506004302 | 77 | 296 | 1.0 | 2.0 | 0.02 | 0.13 | 0.13 | 90 | 1005.0 |
| 20260506003758 | 77 | 140 | 0.0 | 2.0 | 0.05 | 0.13 | 0.13 | 89 | 1004.9 |
| 20260506003254 | 77 | 275 | 2.0 | 3.0 | 0.19 | 0.12 | 0.12 | 88 | 1004.7 |
| 20260506002751 | 77 | 259 | 0.0 | 2.0 | 0.59 | 0.12 | 0.12 | 86 | 1004.7 |
| 20260506002247 | 78 | 149 | 2.0 | 3.0 | 0.52 | 0.09 | 0.09 | 83 | 1004.9 |
| 20260506001743 | 79 | 197 | 2.0 | 5.0 | 0.12 | 0.02 | 0.02 | 82 | 1005.0 |
| 20260506001241 | 79 | 207 | 1.0 | 5.0 | 0.00 | 0.00 | 0.00 | 80 | 1004.3 |
| 20260506000737 | 79 | 169 | 4.0 | 9.0 | 0.00 | 0.00 | 0.00 | 79 | 1004.0 |
| 20260506000235 | 79 | 166 | 7.0 | 11.0 | 0.00 | 0.00 | 0.00 | 78 | 1004.0 |
| 20260505235732 | 79 | 150 | 10.0 | 13.0 | 0.00 | 0.00 | 0.00 | 78 | 1003.8 |
| 20260505235230 | 79 | 147 | 11.0 | 16.0 | 0.00 | 0.00 | 0.00 | 78 | 1003.5 |
| 20260505234726 | 79 | 149 | 13.0 | 16.0 | 0.00 | 0.00 | 0.00 | 78 | 1003.7 |
| 20260505234224 | 80 | 146 | 11.0 | 13.0 | 0.00 | 0.00 | 0.00 | 78 | 1003.6 |
| 20260505233720 | 80 | 152 | 9.0 | 12.0 | 0.00 | 0.00 | 0.00 | 77 | 1003.8 |
| 20260505233218 | 80 | 148 | 8.0 | 12.0 | 0.00 | 0.00 | 0.00 | 77 | 1003.9 |
| 20260505232715 | 80 | 147 | 10.0 | 13.0 | 0.00 | 0.00 | 0.00 | 77 | 1003.7 |
| 20260505232212 | 80 | 144 | 11.0 | 13.0 | 0.00 | 0.00 | 0.00 | 77 | 1003.6 |
| 20260505231709 | 80 | 149 | 9.0 | 13.0 | 0.00 | 0.00 | 0.00 | 77 | 1003.7 |
| 20260505231208 | 81 | 146 | 10.0 | 12.0 | 0.00 | 0.00 | 0.00 | 76 | 1003.7 |
| 20260505230706 | 80 | 149 | 9.0 | 12.0 | 0.00 | 0.00 | 0.00 | 76 | 1003.6 |
| 20260505230202 | 80 | 151 | 9.0 | 10.0 | 0.00 | 0.00 | 0.00 | 76 | 1003.7 |
| 20260505225658 | 81 | 143 | 9.0 | 10.0 | 0.00 | 0.00 | 0.00 | 76 | 1003.6 |
| 20260505225155 | 81 | 148 | 7.0 | 10.0 | 0.00 | 0.00 | 0.00 | 76 | 1003.6 |
| 20260505224651 | 81 | 150 | 6.0 | 8.0 | 0.00 | 0.00 | 0.00 | 75 | 1003.4 |
| 20260505224149 | 81 | 151 | 3.0 | 8.0 | 0.00 | 0.00 | 0.00 | 76 | 1003.5 |
| 20260505223646 | 80 | 150 | 9.0 | 11.0 | 0.00 | 0.00 | 0.00 | 76 | 1003.3 |
| 20260505223142 | 80 | 146 | 9.0 | 11.0 | 0.00 | 0.00 | 0.00 | 77 | 1003.2 |
| 20260505222638 | 80 | 151 | 10.0 | 12.0 | 0.00 | 0.00 | 0.00 | 76 | 1003.3 |
| 20260505222135 | 81 | 145 | 10.0 | 12.0 | 0.00 | 0.00 | 0.00 | 74 | 1003.6 |
| 20260505221632 | 81 | 150 | 10.0 | 12.0 | 0.00 | 0.00 | 0.00 | 74 | 1003.3 |
| 20260505221128 | 81 | 148 | 8.0 | 11.0 | 0.00 | 0.00 | 0.00 | 76 | 1003.3 |
| 20260505220626 | 81 | 151 | 9.0 | 11.0 | 0.00 | 0.00 | 0.00 | 76 | 1003.2 |
| 20260505220123 | 81 | 152 | 7.0 | 11.0 | 0.00 | 0.00 | 0.00 | 76 | 1003.2 |
| 20260505215621 | 81 | 150 | 10.0 | 11.0 | 0.00 | 0.00 | 0.00 | 75 | 1003.3 |
| 20260505215119 | 81 | 151 | 7.0 | 10.0 | 0.00 | 0.00 | 0.00 | 74 | 1003.4 |
| 20260505214617 | 82 | 160 | 5.0 | 9.0 | 0.00 | 0.00 | 0.00 | 74 | 1003.4 |
| 20260505214114 | 82 | 145 | 6.0 | 11.0 | 0.00 | 0.00 | 0.00 | 74 | 1003.6 |
| 20260505213611 | 81 | 142 | 8.0 | 11.0 | 0.00 | 0.00 | 0.00 | 75 | 1003.5 |
| 20260505213107 | 81 | 148 | 10.0 | 11.0 | 0.00 | 0.00 | 0.00 | 73 | 1003.4 |
| 20260505212603 | 81 | 161 | 5.0 | 10.0 | 0.00 | 0.00 | 0.00 | 75 | 1003.7 |
| 20260505212102 | 81 | 146 | 8.0 | 13.0 | 0.00 | 0.00 | 0.00 | 74 | 1003.7 |
| 20260505211558 | 81 | 149 | 9.0 | 11.0 | 0.00 | 0.00 | 0.00 | 75 | 1003.6 |
| 20260505211055 | 81 | 150 | 9.0 | 12.0 | 0.00 | 0.00 | 0.00 | 74 | 1003.6 |
| 20260505210551 | 82 | 150 | 7.0 | 11.0 | 0.00 | 0.00 | 0.00 | 72 | 1003.8 |
| 20260505210049 | 82 | 149 | 8.0 | 11.0 | 0.00 | 0.00 | 0.00 | 71 | 1003.7 |
| 20260505205546 | 83 | 145 | 9.0 | 10.0 | 0.00 | 0.00 | 0.00 | 70 | 1003.9 |
| 20260505205044 | 83 | 148 | 3.0 | 9.0 | 0.00 | 0.00 | 0.00 | 71 | 1003.8 |
| 20260505204541 | 84 | 151 | 6.0 | 7.0 | 0.00 | 0.00 | 0.00 | 68 | 1004.0 |
| 20260505204038 | 85 | 155 | 5.0 | 7.0 | 0.00 | 0.00 | 0.00 | 66 | 1004.0 |
| 20260505203535 | 83 | 175 | 6.0 | 7.0 | 0.00 | 0.00 | 0.00 | 68 | 1004.0 |
| 20260505203032 | 81 | 149 | 8.0 | 10.0 | 0.00 | 0.00 | 0.00 | 73 | 1004.0 |
| 20260505202528 | 81 | 150 | 7.0 | 10.0 | 0.00 | 0.00 | 0.00 | 73 | 1004.1 |
| 20260505202024 | 83 | 158 | 7.0 | 10.0 | 0.00 | 0.00 | 0.00 | 70 | 1004.2 |
| 20260505201521 | 81 | 153 | 5.0 | 9.0 | 0.00 | 0.00 | 0.00 | 73 | 1004.1 |
| 20260505201018 | 81 | 152 | 12.0 | 13.0 | 0.00 | 0.00 | 0.00 | 74 | 1004.2 |
| 20260505200517 | 83 | 151 | 4.0 | 10.0 | 0.00 | 0.00 | 0.00 | 70 | 1004.2 |
| 20260505200013 | 82 | 163 | 5.0 | 10.0 | 0.00 | 0.00 | 0.00 | 72 | 1004.3 |
| 20260505195509 | 82 | 154 | 8.0 | 12.0 | 0.00 | 0.00 | 0.00 | 72 | 1004.3 |
| 20260505195007 | 82 | 144 | 10.0 | 10.0 | 0.00 | 0.00 | 0.00 | 70 | 1004.3 |
| 20260505194504 | 82 | 151 | 4.0 | 7.0 | 0.00 | 0.00 | 0.00 | 71 | 1004.3 |
| 20260505194004 | 82 | 182 | 4.0 | 10.0 | 0.00 | 0.00 | 0.00 | 71 | 1004.5 |
| 20260505193502 | 81 | 147 | 8.0 | 13.0 | 0.00 | 0.00 | 0.00 | 72 | 1004.2 |
| 20260505192959 | 80 | 174 | 5.0 | 10.0 | 0.00 | 0.00 | 0.00 | 74 | 1004.3 |
| 20260505192457 | 80 | 148 | 9.0 | 12.0 | 0.00 | 0.00 | 0.00 | 74 | 1004.3 |
| 20260505191954 | 80 | 155 | 5.0 | 13.0 | 0.00 | 0.00 | 0.00 | 75 | 1004.5 |
| 20260505191453 | 79 | 145 | 8.0 | 13.0 | 0.00 | 0.00 | 0.00 | 76 | 1004.5 |
| 20260505190950 | 80 | 147 | 10.0 | 13.0 | 0.00 | 0.00 | 0.00 | 74 | 1004.7 |
| 20260505190444 | 80 | 149 | 5.0 | 9.0 | 0.00 | 0.00 | 0.00 | 74 | 1004.6 |
| 20260505185940 | 80 | 155 | 10.0 | 12.0 | 0.00 | 0.00 | 0.00 | 74 | 1004.6 |
| 20260505185438 | 80 | 146 | 6.0 | 6.0 | 0.00 | 0.00 | 0.00 | 73 | 1004.8 |
| 20260505184934 | 80 | 177 | 3.0 | 8.0 | 0.00 | 0.00 | 0.00 | 74 | 1004.7 |
| 20260505184431 | 80 | 161 | 3.0 | 10.0 | 0.00 | 0.00 | 0.00 | 75 | 1004.8 |
| 20260505183927 | 80 | 158 | 5.0 | 9.0 | 0.00 | 0.00 | 0.00 | 75 | 1004.8 |
| 20260505183425 | 79 | 156 | 6.0 | 11.0 | 0.00 | 0.00 | 0.00 | 75 | 1004.7 |
| 20260505182921 | 80 | 151 | 7.0 | 11.0 | 0.00 | 0.00 | 0.00 | 73 | 1004.9 |
| 20260505182418 | 79 | 166 | 6.0 | 10.0 | 0.00 | 0.00 | 0.00 | 74 | 1004.8 |
| 20260505181914 | 80 | 149 | 8.0 | 9.0 | 0.00 | 0.00 | 0.00 | 72 | 1005.1 |
| 20260505181412 | 80 | 160 | 6.0 | 11.0 | 0.00 | 0.00 | 0.00 | 72 | 1005.0 |
| 20260505180908 | 80 | 157 | 2.0 | 9.0 | 0.00 | 0.00 | 0.00 | 72 | 1005.1 |
| 20260505180405 | 80 | 151 | 5.0 | 11.0 | 0.00 | 0.00 | 0.00 | 72 | 1004.9 |
| 20260505175902 | 80 | 156 | 3.0 | 12.0 | 0.00 | 0.00 | 0.00 | 72 | 1004.8 |
| 20260505175358 | 81 | 159 | 6.0 | 11.0 | 0.00 | 0.00 | 0.00 | 70 | 1004.8 |
| 20260505174854 | 81 | 198 | 5.0 | 8.0 | 0.00 | 0.00 | 0.00 | 72 | 1005.1 |
| 20260505174352 | 80 | 139 | 5.0 | 6.0 | 0.00 | 0.00 | 0.00 | 72 | 1005.1 |
| 20260505173848 | 79 | 180 | 4.0 | 10.0 | 0.00 | 0.00 | 0.00 | 74 | 1005.0 |
| 20260505173344 | 79 | 144 | 8.0 | 11.0 | 0.00 | 0.00 | 0.00 | 75 | 1005.0 |
| 20260505172842 | 80 | 151 | 4.0 | 9.0 | 0.00 | 0.00 | 0.00 | 74 | 1004.9 |
| 20260505172339 | 79 | 151 | 3.0 | 10.0 | 0.00 | 0.00 | 0.00 | 74 | 1005.0 |
| 20260505171839 | 79 | 155 | 7.0 | 9.0 | 0.00 | 0.00 | 0.00 | 75 | 1005.0 |
| 20260505171336 | 78 | 174 | 3.0 | 8.0 | 0.00 | 0.00 | 0.00 | 75 | 1005.1 |
| 20260505170832 | 79 | 154 | 8.0 | 11.0 | 0.00 | 0.00 | 0.00 | 73 | 1004.9 |
| 20260505170329 | 79 | 159 | 5.0 | 13.0 | 0.00 | 0.00 | 0.00 | 74 | 1005.1 |
| 20260505165825 | 79 | 194 | 2.0 | 9.0 | 0.00 | 0.00 | 0.00 | 74 | 1005.4 |
| 20260505165320 | 78 | 146 | 4.0 | 9.0 | 0.00 | 0.00 | 0.00 | 74 | 1005.2 |
| 20260505164816 | 78 | 179 | 2.0 | 11.0 | 0.00 | 0.00 | 0.00 | 75 | 1005.0 |
| 20260505164313 | 79 | 200 | 7.0 | 13.0 | 0.00 | 0.00 | 0.00 | 73 | 1005.2 |
| 20260505163812 | 78 | 180 | 6.0 | 14.0 | 0.00 | 0.00 | 0.00 | 75 | 1005.2 |
| 20260505163310 | 78 | 167 | 4.0 | 11.0 | 0.00 | 0.00 | 0.00 | 75 | 1005.1 |
| 20260505162808 | 78 | 147 | 7.0 | 12.0 | 0.00 | 0.00 | 0.00 | 74 | 1005.1 |
| 20260505162306 | 78 | 154 | 7.0 | 9.0 | 0.00 | 0.00 | 0.00 | 75 | 1004.8 |
| 20260505161801 | 77 | 164 | 6.0 | 10.0 | 0.00 | 0.00 | 0.00 | 76 | 1004.8 |
| 20260505161258 | 77 | 160 | 6.0 | 10.0 | 0.00 | 0.00 | 0.00 | 77 | 1004.7 |
| 20260505160755 | 77 | 169 | 9.0 | 13.0 | 0.00 | 0.00 | 0.00 | 77 | 1004.9 |
| 20260505160253 | 76 | 157 | 7.0 | 10.0 | 0.00 | 0.00 | 0.00 | 78 | 1004.7 |
| 20260505153232 | 76 | 179 | 2.0 | 8.0 | 0.00 | 0.00 | 0.00 | 79 | 1004.9 |
| 20260505152729 | 76 | 148 | 9.0 | 11.0 | 0.00 | 0.00 | 0.00 | 79 | 1005.1 |
| 20260505152226 | 75 | 161 | 3.0 | 11.0 | 0.00 | 0.00 | 0.00 | 80 | 1005.1 |
| 20260505151725 | 75 | 189 | 5.0 | 6.0 | 0.00 | 0.00 | 0.00 | 80 | 1005.3 |
| 20260505151223 | 75 | 158 | 4.0 | 11.0 | 0.00 | 0.00 | 0.00 | 80 | 1005.0 |
| 20260505150719 | 75 | 202 | 8.0 | 11.0 | 0.00 | 0.00 | 0.00 | 81 | 1005.0 |
| 20260505150217 | 75 | 182 | 6.0 | 9.0 | 0.00 | 0.00 | 0.00 | 80 | 1005.1 |
| 20260505140650 | 73 | 154 | 10.0 | 11.0 | 0.00 | 0.00 | 0.00 | 84 | 1004.9 |
| 20260505140147 | 73 | 154 | 3.0 | 13.0 | 0.00 | 0.00 | 0.00 | 84 | 1004.7 |
| 20260505130112 | 72 | 163 | 7.0 | 14.0 | 0.00 | 0.00 | 0.00 | 85 | 1004.6 |
| 20260505124601 | 72 | 197 | 7.0 | 11.0 | 0.00 | 0.00 | 0.00 | 85 | 1004.7 |
| 20260505124057 | 72 | 172 | 7.0 | 10.0 | 0.00 | 0.00 | 0.00 | 85 | 1004.3 |
| 20260505123553 | 72 | 154 | 8.0 | 11.0 | 0.00 | 0.00 | 0.00 | 85 | 1004.2 |
| 20260505123050 | 72 | 176 | 5.0 | 11.0 | 0.00 | 0.00 | 0.00 | 85 | 1004.1 |
| 20260505122547 | 72 | 173 | 4.0 | 14.0 | 0.00 | 0.00 | 0.00 | 84 | 1004.2 |
| 20260505122044 | 72 | 143 | 2.0 | 9.0 | 0.00 | 0.00 | 0.00 | 85 | 1004.3 |
| 20260505121540 | 72 | 164 | 3.0 | 13.0 | 0.00 | 0.00 | 0.00 | 85 | 1004.2 |
| 20260505121037 | 72 | 158 | 3.0 | 10.0 | 0.00 | 0.00 | 0.00 | 85 | 1003.9 |
| 20260505120534 | 72 | 199 | 4.0 | 10.0 | 0.00 | 0.00 | 0.00 | 85 | 1004.0 |
| 20260505120029 | 72 | 149 | 3.0 | 10.0 | 0.00 | 0.00 | 0.00 | 85 | 1004.1 |
| 20260505115524 | 71 | 151 | 6.0 | 9.0 | 0.00 | 0.00 | 0.00 | 85 | 1003.9 |
| 20260505115022 | 72 | 132 | 3.0 | 10.0 | 0.00 | 0.00 | 0.00 | 85 | 1004.0 |
| 20260505114519 | 72 | 168 | 4.0 | 10.0 | 0.00 | 0.00 | 0.00 | 85 | 1003.8 |
| 20260505114015 | 71 | 171 | 3.0 | 10.0 | 0.00 | 0.00 | 0.00 | 85 | 1004.0 |
| 20260505113512 | 71 | 175 | 4.0 | 8.0 | 0.00 | 0.00 | 0.00 | 85 | 1004.0 |
| 20260505113008 | 71 | 184 | 4.0 | 14.0 | 0.00 | 0.00 | 0.00 | 85 | 1003.9 |
| 20260505112504 | 71 | 197 | 5.0 | 13.0 | 0.00 | 0.00 | 0.00 | 85 | 1003.9 |
| 20260505112002 | 71 | 198 | 3.0 | 7.0 | 0.00 | 0.00 | 0.00 | 85 | 1004.0 |
| 20260505111456 | 71 | 151 | 7.0 | 17.0 | 0.00 | 0.00 | 0.00 | 85 | 1004.0 |
| 20260505110952 | 71 | 178 | 4.0 | 9.0 | 0.00 | 0.00 | 0.00 | 85 | 1003.8 |
| 20260505110449 | 71 | 155 | 2.0 | 9.0 | 0.00 | 0.00 | 0.00 | 85 | 1004.0 |
| 20260505101921 | 71 | 163 | 5.0 | 14.0 | 0.00 | 0.00 | 0.00 | 85 | 1004.0 |
| 20260505101421 | 71 | 147 | 7.0 | 15.0 | 0.00 | 0.00 | 0.00 | 85 | 1004.1 |
| 20260505100916 | 71 | 168 | 5.0 | 13.0 | 0.00 | 0.00 | 0.00 | 85 | 1004.0 |
| 20260505100414 | 71 | 160 | 8.0 | 13.0 | 0.00 | 0.00 | 0.00 | 85 | 1003.9 |
| 20260505095909 | 71 | 152 | 9.0 | 10.0 | 0.00 | 0.00 | 0.00 | 85 | 1004.0 |
| 20260505095406 | 71 | 150 | 7.0 | 12.0 | 0.00 | 0.00 | 0.00 | 85 | 1004.1 |
| 20260505094902 | 72 | 146 | 9.0 | 12.0 | 0.00 | 0.00 | 0.00 | 85 | 1004.1 |
| 20260505094400 | 72 | 136 | 4.0 | 13.0 | 0.00 | 0.00 | 0.00 | 84 | 1004.5 |
| 20260505093855 | 72 | 178 | 5.0 | 10.0 | 0.00 | 0.00 | 0.00 | 84 | 1004.2 |
| 20260505093353 | 72 | 161 | 8.0 | 10.0 | 0.00 | 0.00 | 0.00 | 84 | 1004.5 |
| 20260505092850 | 71 | 165 | 3.0 | 10.0 | 0.00 | 0.00 | 0.00 | 84 | 1004.5 |
| 20260505092348 | 72 | 201 | 4.0 | 10.0 | 0.00 | 0.00 | 0.00 | 84 | 1004.5 |
| 20260505091845 | 71 | 148 | 4.0 | 11.0 | 0.00 | 0.00 | 0.00 | 84 | 1004.5 |
| 20260505091343 | 71 | 206 | 6.0 | 8.0 | 0.00 | 0.00 | 0.00 | 84 | 1004.3 |
| 20260505090841 | 71 | 161 | 4.0 | 11.0 | 0.00 | 0.00 | 0.00 | 85 | 1004.2 |
| 20260505090339 | 71 | 160 | 4.0 | 9.0 | 0.00 | 0.00 | 0.00 | 84 | 1004.3 |
| 20260505085835 | 71 | 166 | 5.0 | 12.0 | 0.00 | 0.00 | 0.00 | 84 | 1004.5 |
| 20260505085333 | 71 | 180 | 6.0 | 10.0 | 0.00 | 0.00 | 0.00 | 84 | 1004.6 |
| 20260505084831 | 71 | 148 | 5.0 | 13.0 | 0.00 | 0.00 | 0.00 | 84 | 1004.5 |
| 20260505084329 | 71 | 163 | 8.0 | 13.0 | 0.00 | 0.00 | 0.00 | 84 | 1004.3 |
| 20260505083826 | 71 | 180 | 7.0 | 11.0 | 0.00 | 0.00 | 0.00 | 85 | 1004.5 |
| 20260505083324 | 71 | 168 | 4.0 | 15.0 | 0.00 | 0.00 | 0.00 | 85 | 1004.5 |
| 20260505082820 | 71 | 159 | 10.0 | 15.0 | 0.00 | 0.00 | 0.00 | 85 | 1004.5 |
| 20260505082316 | 71 | 208 | 2.0 | 11.0 | 0.00 | 0.00 | 0.00 | 85 | 1004.7 |
| 20260505081813 | 71 | 149 | 9.0 | 15.0 | 0.00 | 0.00 | 0.00 | 85 | 1004.3 |
| 20260505081310 | 71 | 192 | 4.0 | 20.0 | 0.00 | 0.00 | 0.00 | 85 | 1004.3 |
| 20260505080806 | 71 | 147 | 5.0 | 13.0 | 0.00 | 0.00 | 0.00 | 84 | 1004.5 |
| 20260505080302 | 71 | 160 | 6.0 | 16.0 | 0.00 | 0.00 | 0.00 | 84 | 1004.8 |
| 20260505075758 | 71 | 151 | 7.0 | 13.0 | 0.00 | 0.00 | 0.00 | 85 | 1004.9 |
| 20260505075255 | 71 | 170 | 4.0 | 15.0 | 0.00 | 0.00 | 0.00 | 85 | 1004.9 |
| 20260505074752 | 71 | 147 | 11.0 | 13.0 | 0.00 | 0.00 | 0.00 | 85 | 1004.9 |
| 20260505074249 | 71 | 165 | 6.0 | 12.0 | 0.00 | 0.00 | 0.00 | 85 | 1005.0 |
| 20260505073747 | 71 | 170 | 6.0 | 9.0 | 0.00 | 0.00 | 0.00 | 85 | 1005.2 |
| 20260505073245 | 71 | 149 | 7.0 | 14.0 | 0.00 | 0.00 | 0.00 | 85 | 1005.1 |
| 20260505072741 | 71 | 148 | 10.0 | 12.0 | 0.00 | 0.00 | 0.00 | 85 | 1005.1 |
| 20260505072237 | 71 | 176 | 6.0 | 16.0 | 0.00 | 0.00 | 0.00 | 85 | 1005.1 |
| 20260505071733 | 71 | 148 | 8.0 | 13.0 | 0.00 | 0.00 | 0.00 | 84 | 1005.1 |
| 20260505071230 | 71 | 163 | 6.0 | 12.0 | 0.00 | 0.00 | 0.00 | 84 | 1005.3 |
| 20260505070728 | 71 | 153 | 4.0 | 10.0 | 0.00 | 0.00 | 0.00 | 84 | 1005.5 |
| 20260505070224 | 71 | 145 | 6.0 | 12.0 | 0.00 | 0.00 | 0.00 | 84 | 1005.5 |
| 20260505065720 | 71 | 153 | 8.0 | 10.0 | 0.00 | 0.00 | 0.00 | 83 | 1005.3 |
| 20260505065217 | 71 | 183 | 3.0 | 11.0 | 0.00 | 0.00 | 0.00 | 83 | 1005.5 |
| 20260505064714 | 71 | 168 | 2.0 | 11.0 | 0.00 | 0.00 | 0.00 | 83 | 1005.4 |
| 20260505064212 | 71 | 157 | 7.0 | 12.0 | 0.00 | 0.00 | 0.00 | 84 | 1005.6 |
| 20260505063709 | 71 | 152 | 5.0 | 12.0 | 0.00 | 0.00 | 0.00 | 83 | 1005.6 |
| 20260505063205 | 72 | 149 | 14.0 | 15.0 | 0.00 | 0.00 | 0.00 | 83 | 1005.5 |
| 20260505062701 | 72 | 156 | 6.0 | 12.0 | 0.00 | 0.00 | 0.00 | 83 | 1005.5 |
| 20260505062159 | 72 | 145 | 5.0 | 19.0 | 0.00 | 0.00 | 0.00 | 83 | 1005.4 |
| 20260505061656 | 72 | 167 | 10.0 | 17.0 | 0.00 | 0.00 | 0.00 | 83 | 1005.5 |
| 20260505061154 | 72 | 153 | 10.0 | 13.0 | 0.00 | 0.00 | 0.00 | 82 | 1005.5 |
| 20260505060651 | 72 | 171 | 4.0 | 14.0 | 0.00 | 0.00 | 0.00 | 82 | 1005.9 |
| 20260505060147 | 72 | 161 | 5.0 | 14.0 | 0.00 | 0.00 | 0.00 | 82 | 1005.8 |
| 20260505055643 | 72 | 148 | 8.0 | 14.0 | 0.00 | 0.00 | 0.00 | 82 | 1006.0 |
| 20260505055140 | 72 | 151 | 11.0 | 15.0 | 0.00 | 0.00 | 0.00 | 81 | 1005.8 |
| 20260505054637 | 72 | 151 | 13.0 | 15.0 | 0.00 | 0.00 | 0.00 | 81 | 1005.8 |
| 20260505054135 | 72 | 157 | 7.0 | 15.0 | 0.00 | 0.00 | 0.00 | 81 | 1005.8 |
| 20260505053632 | 72 | 145 | 10.0 | 12.0 | 0.00 | 0.00 | 0.00 | 81 | 1006.0 |
| 20260505053128 | 72 | 161 | 6.0 | 14.0 | 0.00 | 0.00 | 0.00 | 81 | 1006.1 |
| 20260505052626 | 72 | 155 | 10.0 | 16.0 | 0.00 | 0.00 | 0.00 | 81 | 1006.1 |
| 20260505052123 | 72 | 153 | 9.0 | 15.0 | 0.00 | 0.00 | 0.00 | 81 | 1006.0 |
| 20260505051620 | 72 | 147 | 17.0 | 17.0 | 0.00 | 0.00 | 0.00 | 80 | 1006.0 |
| 20260505051118 | 72 | 145 | 7.0 | 15.0 | 0.00 | 0.00 | 0.00 | 80 | 1006.2 |
| 20260505050615 | 72 | 146 | 11.0 | 15.0 | 0.00 | 0.00 | 0.00 | 79 | 1006.0 |
| 20260505050114 | 73 | 148 | 13.0 | 17.0 | 0.00 | 0.00 | 0.00 | 79 | 1006.1 |
| 20260505041543 | 73 | 149 | 11.0 | 16.0 | 0.00 | 0.00 | 0.00 | 77 | 1006.5 |
| 20260505041041 | 73 | 149 | 8.0 | 14.0 | 0.00 | 0.00 | 0.00 | 76 | 1006.5 |
| 20260505040538 | 73 | 161 | 6.0 | 16.0 | 0.00 | 0.00 | 0.00 | 76 | 1006.7 |
| 20260505040035 | 73 | 149 | 10.0 | 15.0 | 0.00 | 0.00 | 0.00 | 76 | 1006.4 |
| 20260505035531 | 74 | 150 | 11.0 | 17.0 | 0.00 | 0.00 | 0.00 | 76 | 1006.3 |
| 20260505035028 | 73 | 154 | 9.0 | 14.0 | 0.00 | 0.00 | 0.00 | 76 | 1006.5 |
| 20260505034524 | 74 | 148 | 12.0 | 15.0 | 0.00 | 0.00 | 0.00 | 76 | 1006.3 |
| 20260505034021 | 74 | 170 | 7.0 | 17.0 | 0.00 | 0.00 | 0.00 | 76 | 1006.2 |
| 20260505033518 | 73 | 167 | 9.0 | 15.0 | 0.00 | 0.00 | 0.00 | 76 | 1006.3 |